Cold Bay, AK

4:10 PM AKDT on October 19, 2017 (GMT -0800)
Cold Bay

Weather History for PACD - September, 2013

Change the Weather History Date:

Saturday, September 14, 2013

  Actual Average Record
Temperature  
Mean Temperature 49 °F 49 °F  
Max Temperature 53 °F 53 °F 63 °F (1977)
Min Temperature 45 °F 44 °F 32 °F (2004)
Degree Days  
Heating Degree Days 16 16  
Month to date heating degree days 194 211  
Since 1 July heating degree days 865 1050  
Cooling Degree Days 0 0  
Month to date cooling degree days 0 0  
Year to date cooling degree days 0 0  
Moisture  
Dew Point 45 °F    
Average Humidity 0    
Maximum Humidity 0    
Minimum Humidity 0    
Precipitation  
Precipitation 0.02 in 0.16 in 1.09 in (1953)
Month to date precipitation 2.32 2.13  
Year to date precipitation 30.27 24.87  
Snow  
Snow 0.00 in 0.00 in - ()
Month to date snowfall 0.0 0.0  
Since 1 July snowfall 0.0 0.0  
Since 1 September snowfall 0.0 0.0  
Snow Depth 0.00 in    
Sea Level Pressure  
Sea Level Pressure 30.20 in    
Wind  
Wind Speed 13 mph (NW)    
Max Wind Speed 18 mph    
Max Gust Speed 21 mph    
Visibility 9 miles    
Events Rain    
T = Trace of Precipitation, MM = Missing Value Source: NWS Daily Summary

Daily Weather History Graph

Daily Weather History Graph

Search for Another Location

Airport or City:

Trip Planner

Search our weather history database for the weather conditions in past years. The results will help you decide how hot, cold, wet, or windy it might be!

Date:

Astronomy

Sep. 14, 2013 Rise Set
Actual Time 8:22 AM AKDT 9:09 PM AKDT
Civil Twilight 7:45 AM AKDT 9:45 PM AKDT
Nautical Twilight 7:00 AM AKDT 10:30 PM AKDT
Astronomical Twilight 6:12 AM AKDT 11:18 PM AKDT
Moon 6:36 PM AKDT (9/14) 2:25 AM AKDT (9/14)
Length of Visible Light 14h 00m
Length of Day
12h 46m
Waxing Gibbous, 74% of the Moon is Illuminated
Sep 14
Waxing Gibbous
Sep 19
Full
Sep 26
Last Quarter
Oct 4
New
Oct 11
First Quarter

Hourly Weather History & Observations

Time (AKDT) Temp. Windchill Dew Point Humidity Pressure Visibility Wind Dir Wind Speed Gust Speed Precip Events Conditions
12:53 AM 46.0 °F 40.6 °F 42.1 °F 86% 30.14 in 10.0 mi WNW 11.5 mph - N/A   Clear
1:53 AM 46.9 °F - 43.0 °F 86% 30.14 in 10.0 mi NW 12.7 mph - N/A   Scattered Clouds
2:53 AM 48.0 °F - 44.1 °F 86% 30.14 in 10.0 mi NNW 16.1 mph - N/A   Scattered Clouds
3:11 AM 48.2 °F - 44.6 °F 87% 30.14 in 10.0 mi NNW 12.7 mph - N/A   Mostly Cloudy
3:22 AM 48.2 °F - 44.6 °F 87% 30.14 in 10.0 mi NW 13.8 mph - N/A   Mostly Cloudy
3:50 AM 48.2 °F - 46.4 °F 93% 30.15 in 10.0 mi NW 10.4 mph - N/A   Overcast
3:53 AM 48.9 °F - 46.0 °F 90% 30.15 in 10.0 mi NW 11.5 mph - N/A   Overcast
4:08 AM 50.0 °F - 46.4 °F 87% 30.16 in 10.0 mi NW 11.5 mph - N/A   Overcast
4:53 AM 50.0 °F - 46.0 °F 86% 30.16 in 10.0 mi NW 13.8 mph - N/A   Overcast
5:07 AM 50.0 °F - 46.4 °F 87% 30.16 in 10.0 mi NW 13.8 mph - N/A   Overcast
5:33 AM 50.0 °F - 46.4 °F 87% 30.16 in 10.0 mi NW 11.5 mph - N/A   Overcast
5:53 AM 50.0 °F - 46.0 °F 86% 30.17 in 10.0 mi NW 10.4 mph - N/A   Overcast
6:23 AM 50.0 °F - 46.4 °F 87% 30.17 in 10.0 mi NNW 12.7 mph - N/A   Overcast
6:53 AM 50.0 °F - 46.0 °F 86% 30.18 in 10.0 mi NW 9.2 mph - N/A   Overcast
7:25 AM 48.2 °F - 46.4 °F 93% 30.18 in 4.0 mi NW 10.4 mph - 0.00 in Rain Light Rain
7:53 AM 50.0 °F - 46.9 °F 89% 30.18 in 4.0 mi NW 12.7 mph - 0.01 in Rain Light Rain
8:06 AM 48.2 °F - 46.4 °F 93% 30.18 in 9.0 mi WNW 15.0 mph - 0.01 in Rain Light Rain
8:24 AM 48.2 °F - 46.4 °F 93% 30.19 in 2.5 mi WNW 15.0 mph - 0.01 in Rain Light Rain
8:35 AM 48.2 °F - 46.4 °F 93% 30.19 in 2.5 mi NW 13.8 mph - 0.01 in   Overcast
8:50 AM 48.2 °F - 46.4 °F 93% 30.19 in 2.5 mi NW 13.8 mph - 0.01 in   Overcast
8:53 AM 48.9 °F - 46.0 °F 90% 30.20 in 2.5 mi NW 15.0 mph - 0.01 in   Overcast
9:00 AM 48.2 °F - 46.4 °F 93% 30.19 in 5.0 mi NW 15.0 mph - N/A   Overcast
9:53 AM 50.0 °F - 46.0 °F 86% 30.20 in 10.0 mi NW 10.4 mph - N/A   Overcast
10:53 AM 50.0 °F - 46.0 °F 86% 30.22 in 10.0 mi NW 9.2 mph - N/A   Overcast
11:53 AM 51.1 °F - 45.0 °F 80% 30.23 in 10.0 mi NW 11.5 mph - N/A   Overcast
12:53 PM 52.0 °F - 46.0 °F 80% 30.23 in 10.0 mi WNW 12.7 mph - N/A   Overcast
1:53 PM 52.0 °F - 45.0 °F 77% 30.24 in 10.0 mi NW 13.8 mph - N/A   Overcast
2:53 PM 53.1 °F - 45.0 °F 74% 30.24 in 10.0 mi NW 16.1 mph - N/A   Overcast
3:53 PM 52.0 °F - 44.1 °F 74% 30.24 in 10.0 mi NW 16.1 mph - N/A   Overcast
4:53 PM 53.1 °F - 45.0 °F 74% 30.23 in 10.0 mi NW 15.0 mph - N/A   Overcast
5:53 PM 52.0 °F - 45.0 °F 77% 30.24 in 10.0 mi NW 15.0 mph - N/A   Overcast
6:53 PM 52.0 °F - 44.1 °F 74% 30.24 in 10.0 mi NNW 15.0 mph - N/A   Overcast
7:53 PM 51.1 °F - 43.0 °F 74% 30.25 in 10.0 mi NW 11.5 mph - N/A   Overcast
8:53 PM 50.0 °F - 44.1 °F 80% 30.26 in 10.0 mi NW 11.5 mph - N/A   Overcast
9:53 PM 50.0 °F - 43.0 °F 77% 30.26 in 10.0 mi NW 10.4 mph - N/A   Overcast
10:53 PM 48.9 °F - 42.1 °F 77% 30.27 in 10.0 mi NNW 9.2 mph - N/A   Overcast
11:53 PM 48.9 °F - 42.1 °F 77% 30.27 in 10.0 mi NW 11.5 mph - N/A   Overcast